User: anonymous   Login
Location: Caltech
(34.1382°N, 118.1253°W)
Time: 03:17:44
(UTC-08:00)
Language:

Cosmos 1939 Rocket - Orbit

View from above orbital plane
View from above orbital plane
View from above satellite
View from above satellite

Ground track
Ground track

The orbit data is extracted from the following two-line orbital elements,

1 19046U 88032B   17058.22213377  .00000989  00000-0  78660-4 0  9996
2 19046  97.5431 108.2303 0038695 342.4801  17.5086 15.02135675556133
Epoch (UTC): 27 February 2017 05:19:52
Eccentricity: 0.0038695
inclination: 97.5431°
perigee height: 533 km
apogee height: 587 km
right ascension of ascending node: 108.2303°
argument of perigee: 342.4801°
revolutions per day: 15.02135675
mean anomaly at epoch: 17.5086°
orbit number at epoch: 55613

The dashed part of the orbit path shows where the satellite is in the earth's shadow,  

DLR